Barcelona, Spain

3:07 PM CEST on September 29, 2016 (GMT +0200)
El Prat

Weather History for LEBL - November, 2012

Change the Weather History Date:

Sunday, November 11, 2012

  Actual Average Record
Temperature  
Mean Temperature 56 °F -  
Max Temperature 61 °F 61 °F 71 °F (2002)
Min Temperature 51 °F 48 °F 42 °F (2001)
Degree Days  
Heating Degree Days 9    
Growing Degree Days 6 (Base 50)    
Moisture  
Dew Point 49 °F    
Average Humidity 76    
Maximum Humidity 88    
Minimum Humidity 54    
Precipitation  
Precipitation 0.00 in - - ()
Sea Level Pressure  
Sea Level Pressure 29.80 in    
Wind  
Wind Speed 7 mph ()    
Max Wind Speed 15 mph    
Max Gust Speed 30 mph    
Visibility 6.7 miles    
Events Rain    
Averages and records for this station are not official NWS values.
T = Trace of Precipitation, MM = Missing Value Source: Averaged Metar Reports

Daily Weather History Graph

Daily Weather History Graph

Search for Another Location

Airport or City:

Trip Planner

Search our weather history database for the weather conditions in past years. The results will help you decide how hot, cold, wet, or windy it might be!

Date:

Astronomy

Nov. 11, 2012 Rise Set
Actual Time 7:35 AM CET 5:35 PM CET
Civil Twilight 7:05 AM CET 6:05 PM CET
Nautical Twilight 6:32 AM CET 6:38 PM CET
Astronomical Twilight 6:00 AM CET 7:10 PM CET
Moon 4:30 AM CET (11/11) 3:50 PM CET (11/11)
Length of Visible Light 10h 59m
Length of Day
10h 00m
Waning Crescent, 9% of the Moon is Illuminated
Nov 11
Waning Crescent
Nov 13
New
Nov 20
First Quarter
Nov 28
Full
Dec 6
Last Quarter

Hourly Weather History & Observations

Time (CET) Temp. Dew Point Humidity Pressure Visibility Wind Dir Wind Speed Gust Speed Precip Events Conditions
12:00 AM 55.4 °F 51.8 °F 88% 29.71 in 6.2 mi NW 5.8 mph - N/A   Partly Cloudy
12:30 AM 55.4 °F 50.0 °F 82% 29.71 in 6.2 mi NNW 4.6 mph - N/A   Partly Cloudy
1:00 AM 54 °F 48 °F 74% 29.71 in 12 mi NNW 2.3 mph - -   Scattered Clouds
1:00 AM 55.4 °F 50.0 °F 82% 29.68 in 6.2 mi NNW 6.9 mph - N/A   Partly Cloudy
1:30 AM 55.4 °F 50.0 °F 82% 29.68 in 6.2 mi NNW 4.6 mph - N/A   Partly Cloudy
2:00 AM 53.6 °F 50.0 °F 88% 29.68 in 6.2 mi NW 3.5 mph - N/A   Partly Cloudy
2:30 AM 53.6 °F 50.0 °F 88% 29.68 in 6.2 mi NNW 6.9 mph - N/A   Partly Cloudy
3:00 AM 53.6 °F 50.0 °F 88% 29.68 in 6.2 mi NNW 4.6 mph - N/A   Partly Cloudy
3:30 AM 53.6 °F 50.0 °F 88% 29.68 in 6.2 mi NNW 9.2 mph - N/A   Partly Cloudy
4:00 AM 53.6 °F 48.2 °F 82% 29.68 in 6.2 mi WNW 8.1 mph - N/A   Partly Cloudy
4:30 AM 53.6 °F 48.2 °F 82% 29.68 in 6.2 mi NW 11.5 mph - N/A   Partly Cloudy
5:00 AM 53.6 °F 50.0 °F 88% 29.68 in 6.2 mi NNW 8.1 mph - N/A   Partly Cloudy
5:30 AM 53.6 °F 48.2 °F 82% 29.68 in 6.2 mi NNW 10.4 mph - N/A   Partly Cloudy
6:00 AM 53.6 °F 50.0 °F 88% 29.68 in 6.2 mi NNW 10.4 mph - N/A   Partly Cloudy
6:30 AM 53.6 °F 48.2 °F 82% 29.68 in 6.2 mi NW 10.4 mph - N/A   Partly Cloudy
7:00 AM 53 °F 47 °F 75% 29.72 in 12 mi North 11.5 mph - -   Partly Cloudy
7:00 AM 53.6 °F 50.0 °F 88% 29.71 in 6.2 mi NNW 11.5 mph - N/A   Scattered Clouds
8:00 AM 53.6 °F 50.0 °F 88% 29.71 in 6.2 mi NW 13.8 mph - N/A   Scattered Clouds
8:30 AM 55.4 °F 48.2 °F 77% 29.74 in 6.2 mi NW 13.8 mph - N/A   Mostly Cloudy
9:00 AM 55.4 °F 50.0 °F 82% 29.74 in 6.2 mi NNW 13.8 mph 25.3 mph N/A   Mostly Cloudy
9:30 AM 55.4 °F 50.0 °F 82% 29.77 in 6.2 mi NW 13.8 mph 29.9 mph N/A   Mostly Cloudy
10:00 AM 55.4 °F 50.0 °F 82% 29.77 in 6.2 mi NW 12.7 mph - N/A   Mostly Cloudy
10:30 AM 55.4 °F 50.0 °F 82% 29.77 in 6.2 mi NNW 11.5 mph - N/A   Mostly Cloudy
11:00 AM 57.2 °F 50.0 °F 77% 29.80 in 6.2 mi NNW 10.4 mph - N/A   Scattered Clouds
11:30 AM 57.2 °F 50.0 °F 77% 29.80 in 6.2 mi NNW 9.2 mph 20.7 mph N/A   Scattered Clouds
12:00 PM 57.2 °F 51.8 °F 82% 29.80 in 6.2 mi NNW 6.9 mph - N/A   Scattered Clouds
12:30 PM 59.0 °F 51.8 °F 77% 29.80 in 6.2 mi North 3.5 mph - N/A   Scattered Clouds
1:00 PM 58 °F 50 °F 68% 29.80 in 7 mi North 9.2 mph - - Rain Light Rain
1:00 PM 59.0 °F 51.8 °F 77% 29.80 in 6.2 mi ENE 8.1 mph - N/A Rain Light Rain
1:30 PM 59.0 °F 51.8 °F 77% 29.80 in 6.2 mi ENE 6.9 mph - N/A   Mostly Cloudy
2:00 PM 59.0 °F 51.8 °F 77% 29.80 in 6.2 mi NE 6.9 mph - N/A   Mostly Cloudy
2:30 PM 60.8 °F 48.2 °F 63% 29.83 in 6.2 mi East 5.8 mph - N/A   Mostly Cloudy
3:00 PM 60.8 °F 48.2 °F 63% 29.80 in 6.2 mi ENE 6.9 mph - N/A   Mostly Cloudy
3:30 PM 60.8 °F 50.0 °F 68% 29.83 in 6.2 mi ENE 8.1 mph - N/A   Scattered Clouds
4:00 PM 62.6 °F 48.2 °F 59% 29.83 in 6.2 mi East 11.5 mph - N/A   Partly Cloudy
4:30 PM 60.8 °F 50.0 °F 68% 29.83 in 6.2 mi ENE 9.2 mph - N/A   Partly Cloudy
5:00 PM 62.6 °F 46.4 °F 55% 29.83 in 6.2 mi ENE 11.5 mph - N/A   Partly Cloudy
5:30 PM 60.8 °F 44.6 °F 55% 29.86 in 6.2 mi ENE 13.8 mph - N/A   Partly Cloudy
6:00 PM 60.8 °F 44.6 °F 55% 29.86 in 6.2 mi ENE 15.0 mph - N/A   Partly Cloudy
6:30 PM 60.8 °F 44.6 °F 55% 29.89 in 6.2 mi ENE 13.8 mph - N/A   Partly Cloudy
7:00 PM 58 °F 46 °F 54% 29.92 in 19 mi North 6.9 mph - -   Scattered Clouds
7:00 PM 59.0 °F 46.4 °F 63% 29.92 in 6.2 mi NE 8.1 mph - N/A   Partly Cloudy
7:30 PM 57.2 °F 48.2 °F 72% 29.92 in 6.2 mi NNW 6.9 mph - N/A   Partly Cloudy
8:30 PM 57.2 °F 46.4 °F 67% 29.95 in 6.2 mi NNW 6.9 mph - N/A   Partly Cloudy
9:00 PM 55.4 °F 46.4 °F 72% 29.98 in 6.2 mi NNW 6.9 mph - N/A   Partly Cloudy
9:30 PM 55.4 °F 46.4 °F 72% 29.98 in 6.2 mi NNW 8.1 mph - N/A   Partly Cloudy
10:00 PM 55.4 °F 44.6 °F 67% 29.98 in 6.2 mi NW 6.9 mph - N/A   Partly Cloudy
10:30 PM 53.6 °F 46.4 °F 77% 30.01 in 6.2 mi NW 6.9 mph - N/A   Partly Cloudy
11:00 PM 53.6 °F 48.2 °F 82% 30.01 in 6.2 mi NNW 9.2 mph - N/A   Partly Cloudy
11:30 PM 53.6 °F 48.2 °F 82% 30.01 in 6.2 mi NNW 11.5 mph - N/A   Partly Cloudy